Location: Columbus
(35.2256°N, 82.1549°W)
Time: 12:12:26
(UTC-05:00)

ISS - Pass Details

Date: 06 December 2021
Orbit: 413 x 422 km, 51.6° (Epoch: 28 January)

Event Time Altitude Azimuth Distance (km) Brightness Sun altitude
Rises 18:03:08 0° 321° (NW) 2,380 0.3 -9.6°
Reaches altitude 10° 18:05:29 10° 335° (NNW) 1,510 -0.9 -10.0°
Maximum altitude 18:08:22 26° 34° (NNE) 880 -2.6 -10.6°
Enters shadow 18:10:11 17° 79° (E) 1,164 -2.2 -10.9°
